This is the latest recevied weather packets stored in our database for station/object SP6PGH-13. If no packets are shown the sender has not sent any weather packets the latest 10 day(s).
| Time | Temp. | Humidity | Pressure | Rain* | Wind** | Luminosity | Snow |
|---|---|---|---|---|---|---|---|
| 1788486924 | 17.22° C | 80% | 1001.5 hPa | - | - | - | - |
| 1788486023 | 17.22° C | 81% | 1001.6 hPa | - | - | - | - |
| 1788485122 | 16.67° C | 81% | 1001.6 hPa | - | - | - | - |
| 1788484221 | 17.22° C | 80% | 1001.5 hPa | - | - | - | - |
| 1788483320 | 17.78° C | 79% | 1001.6 hPa | - | - | - | - |
| 1788482419 | 17.78° C | 79% | 1001.7 hPa | - | - | - | - |
| 1788481518 | 17.78° C | 79% | 1001.6 hPa | - | - | - | - |
| 1788480616 | 17.78° C | 79% | 1001.8 hPa | - | - | - | - |
| 1788479732 | 17.22° C | 79% | 1001.9 hPa | - | - | - | - |
| 1788478814 | 17.78° C | 79% | 1002 hPa | - | - | - | - |
| 1788477913 | 17.22° C | 79% | 1002.1 hPa | - | - | - | - |
| 1788477012 | 17.78° C | 79% | 1002 hPa | - | - | - | - |
| 1788476111 | 17.78° C | 78% | 1002.1 hPa | - | - | - | - |
| 1788475210 | 17.78° C | 78% | 1002.2 hPa | - | - | - | - |
| 1788474309 | 18.33° C | 77% | 1002.3 hPa | - | - | - | - |
| 1788473426 | 18.33° C | 75% | 1002.3 hPa | - | - | - | - |
| 1788472507 | 18.33° C | 75% | 1002.3 hPa | - | - | - | - |
| 1788471606 | 18.89° C | 73% | 1002.1 hPa | - | - | - | - |
| 1788470705 | 19.44° C | 70% | 1002 hPa | - | - | - | - |
| 1788469804 | 19.44° C | 69% | 1002 hPa | - | - | - | - |
| 1788468903 | 19.44° C | 69% | 1002.2 hPa | - | - | - | - |
| 1788468001 | 20° C | 68% | 1002.3 hPa | - | - | - | - |
| 1788467100 | 20° C | 66% | 1002.2 hPa | - | - | - | - |
| 1788466199 | 20° C | 65% | 1002.2 hPa | - | - | - | - |
| 1788465298 | 19.44° C | 65% | 1002.1 hPa | - | - | - | - |
* Rain since midnight (hover to see other rain measurements)
** Current wind speed in m/s (hover to see current wind gust speed)